IRIDIUM 102

Last updated on Sun Jun 21 2026 00:03:13 GMT+0000 (Coordinated Universal Time)

1 41920U 17003D 26170.84816785 .00000212 00000+0 68558-4 0 9990 2 41920 86.3962 87.3268 0002242 86.3510 273.7942 14.34220414493666
UTC large
Height (km)
Speed (km/s)
/
Latitude / Longitude
Inclination (degrees)
Orbital Period (minutes)
Azimuth
Elevation
Range (km)
Doppler Factor

Next 0 passes for location: London (51.5072 / 0.1276)

No passes found over London.
IRIDIUM 102